This is the latest recevied weather packets stored in our database for station/object N8TWM-13. If no packets are shown the sender has not sent any weather packets the latest 10 day(s).
| Time | Temp. | Humidity | Pressure | Rain* | Wind** | Luminosity | Snow |
|---|---|---|---|---|---|---|---|
| 1778054455 | 6.67° C | 97% | 1008.1 hPa | 0 mm | - | 0 W/m² | - |
| 1778054153 | 6.67° C | 97% | 1008.4 hPa | 1.78 mm | - | 0 W/m² | - |
| 1778053849 | 6.67° C | 97% | 1008.4 hPa | 1.78 mm | - | 0 W/m² | - |
| 1778053548 | 6.67° C | 97% | 1008.1 hPa | 1.78 mm | - | 0 W/m² | - |
| 1778053244 | 6.67° C | 97% | 1008.6 hPa | 3.05 mm | - | 0 W/m² | - |
| 1778052942 | 6.67° C | 97% | 1008.6 hPa | 1.27 mm | - | 0 W/m² | - |
| 1778052639 | 6.67° C | 97% | 1008.5 hPa | 1.78 mm | - | 0 W/m² | - |
| 1778052336 | 6.67° C | 97% | 1008.6 hPa | 3.05 mm | - | 0 W/m² | - |
| 1778052034 | 6.67° C | 97% | 1008.3 hPa | 3.05 mm | - | 0 W/m² | - |
| 1778051732 | 6.67° C | 97% | 1008 hPa | 3.05 mm | - | 0 W/m² | - |
| 1778051429 | 6.67° C | 97% | 1007.9 hPa | 1.27 mm | - | 0 W/m² | - |
| 1778051126 | 6.67° C | 97% | 1008.1 hPa | 3.05 mm | - | 0 W/m² | - |
| 1778050823 | 6.67° C | 97% | 1008.3 hPa | 3.05 mm | - | 0 W/m² | - |
| 1778050521 | 6.67° C | 97% | 1007.9 hPa | 3.05 mm | - | 0 W/m² | - |
| 1778050217 | 6.67° C | 97% | 1008 hPa | 3.05 mm | - | 0 W/m² | - |
| 1778049914 | 6.67° C | 97% | 1007.9 hPa | 3.05 mm | - | 0 W/m² | - |
| 1778049609 | 6.67° C | 97% | 1007.7 hPa | 3.05 mm | - | 0 W/m² | - |
| 1778049308 | 6.67° C | 97% | 1008.1 hPa | 3.56 mm | - | 0 W/m² | - |
| 1778049005 | 6.67° C | 97% | 1008.1 hPa | 4.83 mm | - | 0 W/m² | - |
| 1778048703 | 6.67° C | 97% | 1008.1 hPa | 4.32 mm | - | 0 W/m² | - |
| 1778048400 | 7.22° C | 97% | 1007.8 hPa | 4.83 mm | - | 0 W/m² | - |
| 1778048095 | 7.22° C | 97% | 1007.9 hPa | 4.83 mm | - | 0 W/m² | - |
| 1778047793 | 7.78° C | 97% | 1008 hPa | 4.32 mm | - | 0 W/m² | - |
| 1778047492 | 7.78° C | 97% | 1007.8 hPa | 4.83 mm | - | 0 W/m² | - |
| 1778047188 | 7.78° C | 97% | 1007.6 hPa | 3.05 mm | - | 0 W/m² | - |
* Rain latest hour (hover to see other rain measurements)
** Current wind speed in m/s (hover to see current wind gust speed)